[[{"header":{"parameterUnit":"m.s-1","parameterCategory":1,"la1":30.2991,"la2":30.254,"lo1":-89.0895,"lo2":-89.0444,"dy":0.0017,"dx":0.0017,"nx":28,"ny":28,"refTime":"2024-09-30T21:00:00:Z","depth":0,"parameterNumber":2,"parameterNumberName":"U-component_of_WINDS"},"data":[0,0,0,0,0,0,0,0,0,0,0,0,0,0,0,0,0,0,0,0,0,0,0,0,0,0,0,0,0,0,0,0,0,0,0,0,0,0,0,0,0,0,0,0,0,0,0,0,0,0,0,0,0,0,0,0,0,0,1.7652,1.7654,0,1.7837,1.7839,1.7841,1.7905,1.7905,1.7904,1.7903,1.8092,1.8097,1.8103,0,0,0,0,0,0,0,0,0,0,0,0,0,1.7352,1.7358,1.7652,1.7654,1.7657,1.7837,1.7839,1.7842,1.7905,1.7904,1.7904,1.7903,1.809,1.8097,1.8103,0,0,0,0,0,0,0,0,0,0,0,0,0,1.7504,1.7359,1.7651,1.771,1.7717,1.7836,1.7839,1.7842,1.7906,1.7904,1.7903,1.7902,1.8088,1.8096,1.8104,1.8178,0,0,1.813,1.8134,0,0,0,0,0,0,0,0,1.7496,1.7515,1.7699,1.7706,1.7714,1.7847,1.7803,1.7955,1.7906,1.7834,1.7903,1.7902,1.8011,1.8026,1.8063,1.8187,1.8195,1.8131,1.8136,1.814,1.8142,0,0,0,0,0,0,0,1.7485,1.7508,1.7725,1.7702,1.7711,1.7727,1.7747,1.7832,1.7926,1.784,1.7845,1.7866,1.8015,1.8055,1.8068,1.8198,1.8131,1.8139,1.8144,1.8147,1.8392,1.8393,0,0,0,0,0,0,1.7465,1.7498,1.7719,1.7731,1.76,1.7733,1.7756,1.7805,1.7926,1.7943,1.7867,1.7869,1.804,1.8058,1.8075,1.8168,1.814,1.8148,1.8153,1.839,1.8392,1.8393,0,0,0,0,0,0,1.7458,1.7484,1.7712,1.7616,1.7646,1.7739,1.7795,1.781,1.7849,1.7946,1.7963,1.789,1.804,1.8063,1.8152,1.8176,1.8152,1.816,1.8389,1.8391,1.8393,1.8357,0,0,0,0,0,0,1.7449,1.7481,1.751,1.7616,1.7651,1.7786,1.7796,1.7814,1.7864,1.7868,1.7972,1.7988,1.8041,1.8139,1.816,1.8187,1.8166,1.8387,1.839,1.8392,1.8356,1.8357,1.8358,0,0,0,0,0,1.7438,1.7493,1.7512,1.7538,1.769,1.7787,1.7807,1.7867,1.7865,1.7895,1.7957,1.7985,1.817,1.8148,1.8172,1.8202,1.8386,1.8389,1.8392,1.8356,1.8357,1.8358,0,0,0,0,0,0,1.7387,1.7508,1.753,1.762,1.7693,1.7798,1.7838,1.7867,1.7942,1.7942,1.8013,1.8036,1.812,1.817,1.8143,1.828,1.8279,1.8288,1.8243,1.8245,1.8246,1.8232,1.8173,0,0,0,0,0,1.7386,1.7456,1.7558,1.7628,1.7663,1.7744,1.7789,1.7829,1.7907,1.7938,1.8007,1.8081,1.8156,1.8204,1.8278,1.8364,1.8387,1.8397,1.8398,1.8398,1.8404,1.8452,1.8457,1.8404,1.8404,1.8404,0,0,1.7386,1.746,1.75,1.7619,1.768,1.775,1.7769,1.7843,1.7895,1.7949,1.8037,1.809,1.8178,1.8265,1.8308,1.831,1.8424,1.8402,1.8402,1.8407,1.8456,1.8461,1.8465,1.8406,1.8405,1.8405,0,0,1.7419,1.7483,1.7548,1.7609,1.7701,1.7755,1.777,1.7871,1.7908,1.7998,1.804,1.8103,1.8231,1.8291,1.8339,1.8395,1.8423,1.8418,1.8422,1.8469,1.8473,1.8477,1.8496,1.8502,1.8423,1.8423,1.8423,0,1.7406,1.7514,1.7578,1.7649,1.77,1.7752,1.7818,1.7874,1.7985,1.8019,1.8021,1.8182,1.8245,1.8346,1.836,1.8397,1.8416,1.8405,1.8467,1.8472,1.8477,1.8495,1.8503,1.8422,1.8422,1.8422,1.8422,0,1.7492,1.7566,1.7608,1.7714,1.777,1.7838,1.7911,1.796,1.7996,1.8048,1.8139,1.8216,1.8307,1.8334,1.8369,1.8441,1.844,1.8453,1.8454,1.8479,1.8498,1.8506,1.842,1.842,1.8421,1.8421,0,0,1.7498,1.764,1.7653,1.7702,1.7808,1.7866,1.7936,1.8025,1.8065,1.814,1.82,1.8307,1.832,1.8374,1.8416,1.8457,1.8495,1.8466,1.8469,1.8467,1.8578,1.8566,1.8573,1.8515,1.8516,1.8518,1.857,0,1.7545,1.7673,1.7732,1.7833,1.7902,1.7953,1.8014,1.8085,1.8136,1.8201,1.8258,1.8332,1.8345,1.8377,1.842,1.8481,1.8518,1.8479,1.857,1.8573,1.8545,1.8584,1.8572,1.8617,1.8578,1.8579,1.858,0,1.7616,1.7691,1.7799,1.7896,1.7927,1.7981,1.8067,1.8129,1.821,1.8245,1.8304,1.8346,1.8421,1.8417,1.8521,1.8493,1.8534,1.857,1.8573,1.8583,1.8577,1.8593,1.8633,1.8639,1.8593,1.8592,1.8591,0,1.7607,1.7736,1.7817,1.7857,1.7973,1.8009,1.8059,1.814,1.8189,1.8264,1.8297,1.8379,1.8424,1.8487,1.8549,1.8541,1.8647,1.8649,1.8677,1.8675,1.8696,1.8693,1.8742,1.8724,1.8724,1.8724,1.8724,0,1.7652,1.7716,1.7815,1.7864,1.7937,1.8005,1.8075,1.8128,1.8199,1.826,1.8309,1.8365,1.8444,1.851,1.8559,1.8637,1.8657,1.8686,1.8698,1.8681,1.8677,1.8708,1.8706,1.8726,1.8725,1.8725,1.8725,0,1.7655,1.7724,1.7815,1.7917,1.7944,1.7993,1.8081,1.813,1.8184,1.826,1.8282,1.8367,1.8446,1.8515,1.862,1.8653,1.8733,1.8748,1.8705,1.8711,1.8735,1.8731,1.8804,1.8816,1.8791,1.8791,1.8791,0,1.7678,1.7728,1.7836,1.788,1.7929,1.8,1.8051,1.8119,1.817,1.8267,1.8304,1.8388,1.8458,1.8582,1.8653,1.8733,1.875,1.877,1.8763,1.8744,1.8749,1.8745,1.875,1.877,1.877,1.877,1.877,0,1.7712,1.7744,1.7815,1.7898,1.7957,1.8026,1.8096,1.8129,1.8211,1.8265,1.8347,1.8402,1.8509,1.8591,1.8679,1.873,1.8763,1.8772,1.8782,1.8765,1.8737,1.8751,1.8704,1.877,1.877,1.877,1.877,1.877,1.7725,1.7772,1.7855,1.7932,1.7992,1.8057,1.8108,1.8169,1.8239,1.8331,1.8368,1.8451,1.8531,1.8653,1.8704,1.877,1.8775,1.8791,1.8795,1.8797,1.8794,1.8728,1.8787,1.8787,1.8787,1.8787,1.8787,0,1.776,1.7816,1.7887,1.7984,1.8045,1.8072,1.8151,1.8199,1.8272,1.8344,1.8412,1.8506,1.8586,1.8663,1.8746,1.8784,1.8801,1.8803,1.8801,1.8812,1.8785,1.8767,1.8788,1.8788,1.8788,1.8788,1.8788,1.8788,1.7786,1.7866,1.7907,1.8017,1.8073,1.8156,1.8198,1.8257,1.8315,1.8418,1.8484,1.8534,1.8608,1.8697,1.8771,1.8792,1.8819,1.8817,1.8842,1.8815,1.8814,1.8813,1.8796,1.8823,1.8823,1.8863,1.8863,1.8864]},{"header":{"parameterUnit":"m.s-1","parameterCategory":1,"la1":30.2991,"la2":30.254,"lo1":-89.0895,"lo2":-89.0444,"dy":0.0017,"dx":0.0017,"nx":28,"ny":28,"refTime":"2024-09-30T21:00:00:Z","depth":0,"parameterNumber":3,"parameterNumberName":"V-component_of_WINDS"},"data":[0,0,0,0,0,0,0,0,0,0,0,0,0,0,0,0,0,0,0,0,0,0,0,0,0,0,0,0,0,0,0,0,0,0,0,0,0,0,0,0,0,0,0,0,0,0,0,0,0,0,0,0,0,0,0,0,0,0,2.5435,2.5435,0,2.5412,2.5412,2.5412,2.5357,2.5356,2.5355,2.5354,2.5329,2.5329,2.533,0,0,0,0,0,0,0,0,0,0,0,0,0,2.5429,2.543,2.5435,2.5435,2.5435,2.5412,2.5412,2.5412,2.5358,2.5356,2.5355,2.5354,2.5329,2.5329,2.533,0,0,0,0,0,0,0,0,0,0,0,0,0,2.5422,2.543,2.5435,2.5405,2.5402,2.5413,2.5412,2.5412,2.5358,2.5356,2.5355,2.5353,2.5329,2.5329,2.533,2.5367,0,0,2.5332,2.5332,0,0,0,0,0,0,0,0,2.5422,2.5422,2.541,2.5407,2.5404,2.5386,2.5401,2.5397,2.5358,2.5375,2.5354,2.5352,2.5349,2.5348,2.5347,2.5366,2.5365,2.5332,2.5332,2.5332,2.5333,0,0,0,0,0,0,0,2.5423,2.5423,2.5426,2.541,2.5406,2.5392,2.5389,2.54,2.5372,2.5373,2.5369,2.5367,2.5347,2.5347,2.5346,2.5365,2.5332,2.5332,2.5333,2.5333,2.541,2.5411,0,0,0,0,0,0,2.5428,2.5424,2.5427,2.5426,2.5409,2.5393,2.539,2.5394,2.5372,2.5367,2.5369,2.5365,2.5347,2.5346,2.5345,2.5385,2.5332,2.5333,2.5333,2.5408,2.541,2.5412,0,0,0,0,0,0,2.5428,2.5429,2.5428,2.5423,2.5422,2.5395,2.54,2.5394,2.5394,2.5368,2.5363,2.5374,2.5346,2.5345,2.5362,2.5384,2.5333,2.5334,2.5406,2.5408,2.5411,2.5467,0,0,0,0,0,0,2.5428,2.5429,2.5444,2.5424,2.5423,2.5446,2.5401,2.5395,2.5395,2.539,2.5371,2.5367,2.5344,2.5361,2.5362,2.5383,2.5334,2.5404,2.5407,2.541,2.5463,2.5471,2.5478,0,0,0,0,0,2.5428,2.5461,2.5445,2.5446,2.5441,2.5447,2.5446,2.542,2.5397,2.5411,2.5394,2.5367,2.5382,2.5363,2.5364,2.5386,2.5402,2.5406,2.541,2.5459,2.5469,2.5478,0,0,0,0,0,0,2.5484,2.5458,2.544,2.5468,2.546,2.5438,2.5455,2.5432,2.543,2.5425,2.5392,2.5388,2.5409,2.54,2.538,2.5419,2.5387,2.5391,2.5425,2.5434,2.5441,2.5442,2.5335,0,0,0,0,0,2.55,2.5508,2.5485,2.5511,2.5508,2.5482,2.5484,2.5465,2.5455,2.5451,2.5436,2.5427,2.5429,2.5431,2.5432,2.5462,2.5455,2.5477,2.5484,2.5491,2.5494,2.5506,2.5514,2.5424,2.5424,2.5424,0,0,2.5532,2.5519,2.5526,2.5522,2.5514,2.5521,2.548,2.5491,2.5495,2.5453,2.5467,2.5456,2.5444,2.5466,2.5475,2.5459,2.5517,2.5495,2.5501,2.55,2.551,2.5519,2.5526,2.5427,2.5426,2.5426,0,0,2.5595,2.5587,2.5606,2.5599,2.5587,2.5569,2.5574,2.5555,2.5545,2.5559,2.5527,2.5532,2.5537,2.5528,2.5525,2.5582,2.5556,2.5583,2.5622,2.5634,2.5641,2.5647,2.5665,2.5672,2.5587,2.5587,2.5587,0,2.5636,2.5647,2.5619,2.5631,2.5629,2.5591,2.561,2.5604,2.5592,2.5591,2.5573,2.5577,2.5566,2.5585,2.5598,2.5598,2.56,2.5585,2.5642,2.5648,2.5653,2.567,2.5677,2.5591,2.559,2.559,2.559,0,2.5697,2.5705,2.5723,2.5712,2.5712,2.5728,2.5701,2.5704,2.5684,2.5668,2.5682,2.5667,2.5663,2.5667,2.5648,2.5682,2.5671,2.5648,2.5615,2.5665,2.568,2.5686,2.5595,2.5594,2.5593,2.5592,0,0,2.5794,2.5767,2.5774,2.5767,2.575,2.5755,2.5768,2.5764,2.5766,2.576,2.5768,2.5772,2.575,2.5746,2.5726,2.5737,2.5779,2.5711,2.5711,2.5722,2.5812,2.5828,2.5836,2.5763,2.5764,2.5765,2.5813,0,2.585,2.5871,2.5845,2.5871,2.5876,2.584,2.585,2.584,2.5825,2.5827,2.581,2.5812,2.5784,2.5781,2.579,2.5772,2.5796,2.5769,2.5768,2.5768,2.577,2.5845,2.5862,2.5908,2.5818,2.582,2.582,0,2.5919,2.5914,2.594,2.5919,2.5921,2.5931,2.5924,2.5927,2.5914,2.5902,2.5897,2.5872,2.5881,2.585,2.5861,2.5843,2.5841,2.5832,2.5833,2.583,2.5796,2.5841,2.5922,2.5928,2.583,2.5829,2.5828,0,2.5983,2.5984,2.5999,2.5995,2.5972,2.5979,2.597,2.5956,2.5954,2.5948,2.5946,2.5941,2.5938,2.5934,2.5907,2.5888,2.592,2.5888,2.5909,2.5909,2.5916,2.5916,2.5995,2.5919,2.5919,2.5919,2.5918,0,2.6047,2.6064,2.6027,2.6036,2.6053,2.6023,2.604,2.6027,2.6014,2.6019,2.5987,2.5992,2.5958,2.5959,2.5938,2.5949,2.5948,2.5937,2.5931,2.5939,2.594,2.5936,2.5931,2.592,2.592,2.592,2.5919,0,2.6122,2.6098,2.6111,2.6088,2.6083,2.6096,2.6075,2.6081,2.6064,2.607,2.607,2.6042,2.6041,2.6014,2.6008,2.5994,2.6012,2.6001,2.6016,2.6012,2.6033,2.6031,2.6111,2.6119,2.604,2.6041,2.6041,0,2.6163,2.6175,2.6152,2.6153,2.6145,2.6147,2.6145,2.6116,2.6115,2.61,2.6107,2.6104,2.6099,2.6098,2.6077,2.6071,2.6058,2.6087,2.6057,2.6063,2.6056,2.6054,2.6054,2.6093,2.6094,2.6095,2.6095,0,2.6238,2.6225,2.6224,2.6218,2.6216,2.621,2.6202,2.6204,2.6172,2.6172,2.617,2.6166,2.6159,2.6155,2.6145,2.6133,2.6108,2.6105,2.6109,2.6116,2.6123,2.6117,2.6031,2.6103,2.6102,2.6102,2.6101,2.6101,2.6295,2.6303,2.6288,2.6287,2.6277,2.627,2.6274,2.6257,2.6255,2.6247,2.623,2.623,2.6214,2.6198,2.6189,2.6188,2.6173,2.618,2.6181,2.6182,2.6185,2.6125,2.6186,2.6186,2.6186,2.6185,2.6185,0,2.6366,2.6355,2.6354,2.6343,2.6341,2.6319,2.6308,2.6308,2.6309,2.6297,2.6292,2.6289,2.6284,2.6262,2.6255,2.6258,2.6246,2.6257,2.6255,2.6252,2.62,2.6197,2.6266,2.6266,2.6266,2.6266,2.6266,2.6266,2.6403,2.6414,2.64,2.6405,2.6393,2.6393,2.6388,2.6381,2.6371,2.6369,2.6365,2.635,2.6333,2.6324,2.6318,2.6311,2.6309,2.6323,2.6313,2.6264,2.6256,2.6249,2.6245,2.6324,2.6324,2.6364,2.6365,2.6365]}]]